• In Hungary
  • List of Countries
  • For 7 days
  • Water Temperature
  • Satellite Maps
  • Weather Map
  • News
  • Weather Widgets
  • user-avatar
    Login

    Hourly Weather Lebedevskiy

    Today, 21 October, Sunday

    Time Temperature Precipitation Wind Pressure Humidity
    00:00 +3°C° 0 mm 2 mps 755 mmHg 95%
    01:00 +3°C° 0 mm 2 mps 756 mmHg 95%
    02:00 +2°C° 0 mm 2 mps 756 mmHg 96%
    03:00 +2°C° 0 mm 2 mps 757 mmHg 96%
    04:00 +2°C° 0 mm 2 mps 757 mmHg 96%
    05:00 +1°C° 0 mm 2 mps 757 mmHg 96%
    06:00 +1°C° 0 mm 2 mps 758 mmHg 96%
    07:00 +2°C° 0 mm 2 mps 758 mmHg 91%
    08:00 +3°C° 0 mm 2 mps 759 mmHg 87%
    09:00 +3°C° 0 mm 2 mps 759 mmHg 82%
    10:00 +4°C° 0 mm 2 mps 759 mmHg 76%
    11:00 +5°C° 0 mm 2 mps 760 mmHg 69%
    12:00 +6°C° 0 mm 2 mps 760 mmHg 62%
    13:00 +6°C° 0 mm 2 mps 760 mmHg 62%
    14:00 +7°C° 0 mm 1 mps 760 mmHg 62%
    15:00 +7°C° 0 mm 1 mps 760 mmHg 62%
    16:00 +6°C° 0 mm 1 mps 761 mmHg 67%
    17:00 +5°C° 0 mm 1 mps 761 mmHg 72%
    18:00 +4°C° 0 mm 1 mps 761 mmHg 77%
    19:00 +3°C° 0 mm 0 mps 761 mmHg 79%
    20:00 +2°C° 0 mm 0 mps 762 mmHg 80%
    21:00 +2°C° 0 mm 0 mps 762 mmHg 82%
    22:00 +2°C° 0 mm 0 mps 762 mmHg 84%
    23:00 +1°C° 0 mm 0 mps 762 mmHg 85%

    Tomorrow, 22 October, Monday

    Time Temperature Precipitation Wind Pressure Humidity
    00:00 +2°C° 0 mm 1 mps 762 mmHg 87%
    01:00 +2°C° 0 mm 1 mps 762 mmHg 87%
    02:00 +2°C° 0 mm 1 mps 762 mmHg 88%
    03:00 +1°C° 0 mm 1 mps 762 mmHg 89%
    04:00 +1°C° 0 mm 1 mps 762 mmHg 90%
    05:00 -1°C° 0 mm 2 mps 762 mmHg 90%
    06:00 -1°C° 0 mm 2 mps 761 mmHg 91%
    07:00 +1°C° 0 mm 2 mps 761 mmHg 87%
    08:00 +1°C° 0 mm 3 mps 761 mmHg 82%
    09:00 +3°C° 0 mm 3 mps 761 mmHg 78%
    10:00 +4°C° 0 mm 4 mps 760 mmHg 74%
    11:00 +5°C° 0 mm 4 mps 760 mmHg 70%
    12:00 +6°C° 0 mm 4 mps 760 mmHg 65%
    13:00 +6°C° 0 mm 4 mps 759 mmHg 66%
    14:00 +6°C° 0 mm 4 mps 759 mmHg 66%
    15:00 +6°C° 0 mm 4 mps 758 mmHg 67%
    16:00 +5°C° 0 mm 4 mps 757 mmHg 71%
    17:00 +5°C° 0 mm 4 mps 757 mmHg 76%
    18:00 +3°C° 0 mm 5 mps 756 mmHg 80%
    19:00 +3°C° 0 mm 5 mps 756 mmHg 81%
    20:00 +3°C° 0 mm 5 mps 755 mmHg 82%
    21:00 +3°C° 0 mm 5 mps 755 mmHg 82%
    22:00 +3°C° 0 mm 5 mps 755 mmHg 82%
    23:00 +3°C° 0 mm 5 mps 754 mmHg 82%

    Day after tomorrow, 23 October, Tuesday

    Time Temperature Precipitation Wind Pressure Humidity
    00:00 +3°C° 0 mm 5 mps 754 mmHg 82%
    01:00 +3°C° 0 mm 5 mps 753 mmHg 85%
    02:00 +2°C° 0 mm 5 mps 753 mmHg 88%
    03:00 +2°C° 0 mm 5 mps 753 mmHg 90%
    04:00 +2°C° 0 mm 5 mps 752 mmHg 92%
    05:00 +2°C° 0 mm 5 mps 752 mmHg 93%
    06:00 +2°C° 0 mm 5 mps 751 mmHg 94%
    07:00 +3°C° 0 mm 5 mps 751 mmHg 93%
    08:00 +5°C° 0 mm 5 mps 751 mmHg 91%
    09:00 +6°C° 0 mm 5 mps 750 mmHg 89%
    10:00 +7°C° 0.3 mm 5 mps 750 mmHg 86%
    11:00 +7°C° 0.3 mm 5 mps 749 mmHg 83%
    12:00 +8°C° 0.3 mm 5 mps 748 mmHg 80%
    13:00 +8°C° 0.7 mm 5 mps 748 mmHg 80%
    14:00 +8°C° 0.7 mm 5 mps 747 mmHg 80%
    15:00 +8°C° 0.7 mm 5 mps 747 mmHg 80%
    16:00 +8°C° 0.9 mm 5 mps 746 mmHg 83%
    17:00 +7°C° 0.9 mm 5 mps 746 mmHg 86%
    18:00 +7°C° 0.9 mm 5 mps 745 mmHg 88%
    19:00 +7°C° 0.5 mm 5 mps 745 mmHg 89%
    20:00 +7°C° 0.5 mm 5 mps 744 mmHg 89%
    21:00 +7°C° 0.5 mm 4 mps 743 mmHg 89%
    22:00 +7°C° 0.4 mm 4 mps 743 mmHg 90%
    23:00 +7°C° 0.4 mm 4 mps 742 mmHg 90%

    24 October, Wednesday

    Time Temperature Precipitation Wind Pressure Humidity
    00:00 +7°C° 0.4 mm 4 mps 742 mmHg 91%
    01:00 +7°C° 0.3 mm 4 mps 742 mmHg 92%
    02:00 +7°C° 0.3 mm 4 mps 741 mmHg 93%
    03:00 +7°C° 0.3 mm 4 mps 741 mmHg 93%
    04:00 +7°C° 0 mm 3 mps 741 mmHg 93%
    05:00 +7°C° 0 mm 3 mps 742 mmHg 92%
    06:00 +5°C° 0 mm 3 mps 742 mmHg 91%
    07:00 +5°C° 0 mm 3 mps 742 mmHg 88%
    08:00 +5°C° 0 mm 3 mps 742 mmHg 86%
    09:00 +5°C° 0 mm 3 mps 742 mmHg 83%
    10:00 +7°C° 0 mm 3 mps 742 mmHg 79%
    11:00 +7°C° 0 mm 4 mps 742 mmHg 75%
    12:00 +8°C° 0 mm 4 mps 742 mmHg 71%
    13:00 +9°C° 0 mm 3 mps 742 mmHg 71%
    14:00 +9°C° 0 mm 3 mps 742 mmHg 71%
    15:00 +9°C° 0 mm 3 mps 742 mmHg 70%
    16:00 +8°C° 0 mm 3 mps 742 mmHg 74%
    17:00 +7°C° 0 mm 3 mps 742 mmHg 78%
    18:00 +7°C° 0 mm 3 mps 742 mmHg 82%
    19:00 +7°C° 0 mm 3 mps 742 mmHg 82%
    20:00 +7°C° 0 mm 3 mps 742 mmHg 81%
    21:00 +7°C° 0 mm 3 mps 742 mmHg 81%
    22:00 +6°C° 0 mm 4 mps 742 mmHg 83%
    23:00 +6°C° 0 mm 4 mps 742 mmHg 85%

    25 October, Thursday

    Time Temperature Precipitation Wind Pressure Humidity
    00:00 +6°C° 0 mm 4 mps 742 mmHg 87%
    01:00 +6°C° 0 mm 4 mps 741 mmHg 87%
    02:00 +6°C° 0 mm 4 mps 741 mmHg 88%
    03:00 +6°C° 0 mm 4 mps 741 mmHg 88%
    04:00 +6°C° 0 mm 5 mps 740 mmHg 88%
    05:00 +6°C° 0 mm 5 mps 740 mmHg 88%
    06:00 +7°C° 0 mm 6 mps 740 mmHg 89%
    07:00 +7°C° 0.3 mm 6 mps 739 mmHg 89%
    08:00 +8°C° 0.3 mm 7 mps 739 mmHg 89%
    09:00 +9°C° 0.3 mm 7 mps 738 mmHg 89%
    10:00 +9°C° 1.4 mm 7 mps 738 mmHg 89%
    11:00 +9°C° 1.4 mm 6 mps 738 mmHg 90%
    12:00 +9°C° 1.4 mm 6 mps 737 mmHg 91%
    13:00 +9°C° 1.2 mm 6 mps 737 mmHg 90%
    14:00 +9°C° 1.2 mm 6 mps 737 mmHg 89%
    15:00 +9°C° 1.2 mm 6 mps 737 mmHg 88%
    16:00 +9°C° 0.6 mm 6 mps 737 mmHg 89%
    17:00 +9°C° 0.6 mm 6 mps 737 mmHg 90%
    18:00 +9°C° 0.6 mm 5 mps 737 mmHg 90%
    19:00 +9°C° 1.1 mm 5 mps 737 mmHg 91%
    20:00 +9°C° 1.1 mm 5 mps 736 mmHg 92%
    21:00 +9°C° 1.1 mm 5 mps 736 mmHg 92%
    22:00 +9°C° 1.1 mm 5 mps 736 mmHg 92%
    23:00 +9°C° 1.1 mm 5 mps 736 mmHg 92%

    26 October, Friday

    Time Temperature Precipitation Wind Pressure Humidity
    00:00 +9°C° 1.1 mm 5 mps 736 mmHg 92%
    01:00 +8°C° 0.7 mm 4 mps 736 mmHg 92%
    02:00 +8°C° 0.7 mm 4 mps 736 mmHg 92%
    03:00 +7°C° 0.7 mm 4 mps 736 mmHg 91%
    04:00 +8°C° 0.2 mm 3 mps 737 mmHg 89%
    05:00 +7°C° 0.2 mm 3 mps 737 mmHg 87%
    06:00 +5°C° 0.2 mm 3 mps 738 mmHg 85%
    07:00 +5°C° 0 mm 3 mps 738 mmHg 82%
    08:00 +5°C° 0 mm 4 mps 738 mmHg 80%
    09:00 +5°C° 0 mm 4 mps 739 mmHg 77%
    10:00 +5°C° 0 mm 4 mps 739 mmHg 73%
    11:00 +6°C° 0 mm 4 mps 739 mmHg 70%
    12:00 +6°C° 0 mm 4 mps 740 mmHg 67%
    13:00 +6°C° 0 mm 4 mps 740 mmHg 69%
    14:00 +7°C° 0 mm 3 mps 740 mmHg 70%
    15:00 +7°C° 0 mm 3 mps 740 mmHg 72%
    16:00 +5°C° 0 mm 3 mps 741 mmHg 75%
    17:00 +5°C° 0 mm 3 mps 741 mmHg 78%
    18:00 +5°C° 0 mm 2 mps 741 mmHg 82%
    19:00 +5°C° 0.1 mm 2 mps 741 mmHg 83%
    20:00 +5°C° 0.1 mm 2 mps 741 mmHg 83%
    21:00 +5°C° 0.1 mm 2 mps 741 mmHg 84%
    22:00 +4°C° 0 mm 2 mps 742 mmHg 86%
    23:00 +4°C° 0 mm 2 mps 742 mmHg 88%
    Show more